Photometre #140[NE_1.6] Dunkerque AOT

File : 20220925_140.hum

25/09/2022,06:37:37,TEMP=16.6,BA=5.60,STAT.h
25/09/2022,06:41:45,TEMP=16.6,BA=5.60,STAT.h
25/09/2022,06:46:35,TEMP=16.6,BA=5.60,STAT.h
25/09/2022,06:52:21,TEMP=16.6,BA=5.60,STAT.h
25/09/2022,06:59:20,TEMP=16.6,BA=5.60,STAT.h
25/09/2022,07:07:58,TEMP=16.6,BA=5.60,STAT.h
25/09/2022,07:18:57,TEMP=16.6,BA=5.60,STAT.h
25/09/2022,07:24:14,TEMP=16.6,BA=5.60,STAT.h
25/09/2022,07:30:10,TEMP=16.6,BA=5.60,STAT.h
25/09/2022,07:36:54,TEMP=16.6,BA=5.60,STAT.h
25/09/2022,07:44:36,TEMP=16.6,BA=5.60,STAT.h
25/09/2022,07:53:31,TEMP=16.6,BA=5.60,STAT.h
25/09/2022,08:03:59,TEMP=16.6,BA=5.60,STAT.h
25/09/2022,08:16:31,TEMP=16.6,BA=5.60,STAT.h
25/09/2022,08:31:51,TEMP=16.6,BA=5.60,STAT.h
25/09/2022,08:42:33,TEMP=16.6,BA=5.60,STAT.h
25/09/2022,08:57:33,TEMP=16.6,BA=5.60,STAT.h
25/09/2022,09:12:52,TEMP=15.5,BA=5.60,STAT.D=Abs.,ExtBa=14.21
25/09/2022,09:27:52,TEMP=16.1,BA=5.60,STAT.D=Abs.,ExtBa=14.22
25/09/2022,09:42:54,TEMP=17.0,BA=5.60,STAT.F,ExtBa=14.22
25/09/2022,09:57:52,TEMP=15.8,BA=5.40,STAT.D=Abs.,ExtBa=13.74
25/09/2022,10:12:52,TEMP=15.8,BA=5.60,STAT.D=Abs.,ExtBa=14.03
25/09/2022,10:27:52,TEMP=16.7,BA=5.60,STAT.D=Abs.,ExtBa=14.22
25/09/2022,10:42:54,TEMP=18.1,BA=5.60,STAT.F,ExtBa=14.25
25/09/2022,10:57:52,TEMP=18.1,BA=5.40,STAT.D=Abs.,ExtBa=13.56
25/09/2022,11:12:52,TEMP=17.4,BA=5.60,STAT.D=Abs.,ExtBa=13.99
25/09/2022,11:27:52,TEMP=15.6,BA=5.60,STAT.D=Abs.,ExtBa=14.19
25/09/2022,11:29:05,TEMP=15.6,BA=5.60,STAT.h
25/09/2022,11:42:33,TEMP=15.6,BA=5.60,STAT.h
25/09/2022,11:57:33,TEMP=15.6,BA=5.60,STAT.h
25/09/2022,12:12:53,TEMP=17.0,BA=5.60,STAT.D=Abs.,ExtBa=14.25
25/09/2022,12:27:52,TEMP=17.5,BA=5.60,STAT.D=Abs.,ExtBa=14.23
25/09/2022,12:42:54,TEMP=18.0,BA=5.60,STAT.F,ExtBa=14.24
25/09/2022,12:57:52,TEMP=17.9,BA=5.40,STAT.D=Abs.,ExtBa=13.23
25/09/2022,13:12:52,TEMP=18.0,BA=5.60,STAT.D=Abs.,ExtBa=13.78
25/09/2022,13:27:52,TEMP=17.8,BA=5.60,STAT.D=Abs.,ExtBa=14.11
25/09/2022,13:42:54,TEMP=16.7,BA=5.60,STAT.F,ExtBa=14.23
25/09/2022,13:57:52,TEMP=15.6,BA=5.60,STAT.D=Abs.,ExtBa=14.22
25/09/2022,14:12:52,TEMP=14.5,BA=5.60,STAT.D=Abs.,ExtBa=14.23
25/09/2022,14:27:52,TEMP=15.0,BA=5.60,STAT.D=Abs.,ExtBa=14.23
25/09/2022,14:42:53,TEMP=15.1,BA=5.60,STAT.F,ExtBa=14.22
25/09/2022,14:53:35,TEMP=15.1,BA=5.60,STAT.A=Abs.,ExtBa=14.22
25/09/2022,15:08:55,TEMP=15.4,BA=5.60,STAT.A=Abs.,ExtBa=14.22
25/09/2022,15:21:27,TEMP=15.5,BA=5.60,STAT.A=Abs.,ExtBa=14.22
25/09/2022,15:31:55,TEMP=15.5,BA=5.60,STAT.C=Abs.,ExtBa=14.21
25/09/2022,15:40:50,TEMP=15.6,BA=5.60,STAT.A=Abs.,ExtBa=14.21
25/09/2022,15:48:32,TEMP=15.6,BA=5.60,STAT.A=Abs.,ExtBa=14.21
25/09/2022,15:55:16,TEMP=15.8,BA=5.40,STAT.A=Abs.,ExtBa=14.20
25/09/2022,16:01:12,TEMP=15.8,BA=5.60,STAT.A=Abs.,ExtBa=14.20
25/09/2022,16:06:29,TEMP=15.8,BA=5.60,STAT.B=Abs.,ExtBa=14.20
25/09/2022,16:17:28,TEMP=15.8,BA=5.60,STAT.A=Abs.,ExtBa=14.20
25/09/2022,16:26:06,TEMP=15.8,BA=5.60,STAT.A=Abs.,ExtBa=14.20
25/09/2022,16:33:05,TEMP=15.9,BA=5.60,STAT.A=Abs.,ExtBa=14.19
25/09/2022,16:38:51,TEMP=15.8,BA=5.60,STAT.A=Abs.,ExtBa=14.18
25/09/2022,16:43:41,TEMP=15.8,BA=5.44,STAT.A=Abs.,ExtBa=14.18
25/09/2022,16:47:49,TEMP=15.7,BA=5.44,STAT.A=Abs.,ExtBa=14.16